Location: Melizzano
(41.1500°N, 14.5000°E)
Time: 08:34:46
(UTC+00:00)

Cosmos 2082 Rocket - Pass Details

Date: 11 May 2021
Orbit: 834 x 853 km, 71.0° (Epoch: 20 June)

Event Time Altitude Azimuth Distance (km) Brightness Sun altitude
Rises 21:38:32 0° 329° (NNW) 3,389 6.6 -27.9°
Reaches altitude 10° 21:41:05 10° 323° (NW) 2,452 5.5 -28.1°
Enters shadow 21:46:18 43° 255° (WSW) 1,160 2.8 -28.4°
